Regional Weather Roundup
Issued by NWS

Home | Current Version | Previous Version | Graphics & Text | Print | Product List | Glossary On
Versions: 1 2 3 4 5 6 7 8 9 10 11 12 13 14 15 16 17 18 19 20 21 22 23 24 25 26 27 28 29 30 31 32 33 34 35 36 37 38 39 40 41 42 43 44 45 46 47 48 49 50
000
ASUS43 KLSX 261010
RWRMO

WEATHER SUMMARY FOR MISSOURI
NATIONAL WEATHER SERVICE SPRINGFIELD MO
400 AM CST SUN FEB 26 2017

NOTE: "FAIR" INDICATES FEW OR NO CLOUDS BELOW 12,000 FEET WITH NO
       SIGNIFICANT WEATHER AND/OR OBSTRUCTIONS TO VISIBILITY.
       CURRENT SKY AND/OR WEATHER CONDITIONS ARE NOT AVAILABLE FOR
       CHILLICOTHE AND FARMINGTON.

MOZ001>031-035>038-043-044-053-054-261100-
...NORTHERN AND WESTERN MISSOURI...

CITY           SKY/WX    TMP DP  RH WIND       PRES   REMARKS
KANSAS CTY INT PTCLDY    34  15  46 SW13      29.97S WCI  25
KANSAS C DTWN  CLOUDY    38  13  35 SW13      29.99S WCI  30
LEE`S SUMMIT   CLOUDY    34  14  43 SW10      29.99S WCI  26
ST JOSEPH      PTCLDY    30  17  58 SW6       29.98S WCI  24
CHILLICOTHE      N/A     30  15  53 S7        30.00R WCI  23
KIRKSVILLE     CLOUDY    31  15  52 S9        29.98S WCI  23

$$
MOZ066>068-077>081-088>096-101>105-261100-
...SOUTHWEST MISSOURI...

CITY           SKY/WX    TMP DP  RH WIND       PRES   REMARKS
SPRINGFIELD    PTCLDY    31  17  56 SE10      30.01F WCI  22
JOPLIN         CLOUDY    35  20  54 S7        30.03S WCI  29
BRANSON        CLOUDY    34  14  44 SE7       30.06F WCI  28

$$
MOZ032>034-039>042-045>050-055>058-069>072-261100-
...CENTRAL MISSOURI...

CITY           SKY/WX    TMP DP  RH WIND       PRES   REMARKS
COLUMBIA       CLEAR     27  15  61 S12       30.04S WCI  17
JEFFERSON CITY PTCLDY    29  13  51 E5        30.07F WCI  24
ROLLA          CLEAR     27  12  53 S8        30.06S WCI  19
SEDALIA        PTCLDY    34  15  46 S12       30.02F WCI  25
WHITEMAN AFB   CLOUDY    31  18  58 S8        29.99F WCI  24
WARRENSBURG    MOCLDY    34  18  51 S8        30.01S WCI  27
OSAGE BEACH    CLEAR     26  16  65 SE7       30.06F WCI  18

$$
MOZ051-052-059>065-261100-
...EAST CENTRAL MISSOURI...

CITY           SKY/WX    TMP DP  RH WIND       PRES   REMARKS
ST LOUIS INTL  CLEAR     32  14  47 S10       30.10F WCI  24
SPIRIT OF STL  CLEAR     22  16  78 CALM      30.10F
ST CHARLES     CLEAR     22  18  85 NE6       30.10F WCI  14

$$
MOZ072>076-082>087-097>100-106>115-261100-
...SOUTH CENTRAL AND SOUTHEAST MISSOURI...

CITY           SKY/WX    TMP DP  RH WIND       PRES   REMARKS
CAPE GIRARDEAU CLEAR     24  19  81 CALM      30.17R
FARMINGTON     CLEAR     22  16  78 CALM      30.12S
POPLAR BLUFF   CLEAR     25  23  92 N3        30.16S
WEST PLAINS    CLEAR     30  10  43 SE5       30.10S WCI  25

$$




USA.gov is the U.S. government's official web portal to all federal, state and local government web resources and services.